Location: Arboyeti
(42.1122°N, 44.6017°E)
Time: 09:09:02
(UTC+00:00)

SL-16 R/B - Pass Details

Date: 19 April 2021
Orbit: 840 x 849 km, 71.0° (Epoch: 05 May)

Event Time Altitude Azimuth Distance (km) Brightness Sun altitude
Rises 18:34:23 0° 338° (NNW) 3,421 6.5 -26.8°
Reaches altitude 10° 18:36:53 10° 342° (NNW) 2,481 5.5 -27.1°
Enters shadow 18:42:20 61° 53° (NE) 957 2.3 -27.7°
